STARLINK-35462, 65877

Orbit data source: Space-Track

STARLINK-35462, 65877 is a payload satellite owned by SpaceX/Seattle (US) in LEO that was launched on Fri, 03 Oct 2025 UTC via an FALCON 9 launch vehicle from the Air Force Western Test Range (AFWTR). Payload-class satellites include a variety of spacecraft equipped with specific instruments for various scientific and technological missions. These include communications satellites like Starlink; space stations such as the ISS; scientific satellites like the Hubble; Earth observation satellites from companies like Planet Labs, Umbra, and HawkEye 360; GPS; miniature CubeSats for education and research; and military/defense satellites.

Loading next visibility...
Identifier
65877, 2025-223Z
Orbit
LEO
Country
Flag of USUS
Related business
Manufacturer
SpaceX/Seattle
Mission
Operational Commercial Communications
Bus & Motor
STARLINK V2MO, Unknown motor
Mass
575 kg wet, ~530 kg dry
Launch date (UTC)
2025-10-03 (9 months ago)
Launch vehicle
FALCON 9
Launch site
Air Force Western Test Range (AFWTR)
Object type
Payload
Rocket body
Debris
Shape & HBR
Box + 2 Pan, 17.7 m
Radar Cross Section
36.964 m², Large (>1 m²)

Expand to show TLE details & history
Last TLE update: 11 hours ago

TLE from 11 hours ago
0 STARLINK-35462
1 65877U 25223Z   26171.39299542  .00011552  00000-0  40136-3 0  9998
2 65877  53.1580 176.8640 0001119  77.3477 282.7649 15.30215154 39935
Epoch: 2026-06-20T09:25Z
TLE epoch observation values (Epoch: 2026-06-20T09:25:54.804Z)
Latitude
Longitude
126.77739°
Altitude
475.9 km
Speed
7.629 km/s
True Right ascension
11h 47m 27s
True Declination
0° 00' 00"
Sunlit
Object was in daylight at epoch
Visualization orbit readout
Latitude
Unknown
Longitude
Unknown
Altitude
Unknown
Speed
Unknown
Apparent Right ascension
Unknown
Apparent Declination
Unknown
Sunlit
N/A
Visualization observer readout
Local Sidereal Time
07:19:20
Azimuth
Unknown
Elevation
Unknown
Doppler factor
Unknown
Orbital elements
Apogee altitude
476.193 km
Perigee altitude
474.66 km
Semi-major axis
6,853.564 km
Eccentricity
0.00011
Inclination
53.158°
RAAN
176.864°
Arg. of periapsis
77.3477°
True anomaly
282.75239°
Mean anomaly
282.7649°
Eccentric anomaly
282.75865°
Mean motion
3.82533 °/min
Orbital period
94.11 mins
BSTAR
0.00040136
Loading maneuver chart data...
Computing Atmospheric mass density...
Loading historical data...
Loading historical data...
Loading historical data...
Loading historical data...
Loading historical data...
Loading historical data...
Loading historical data...

Documentation

Showing up to 5 results
|